Weather in Krasnyy Yar

Russia / Volgograd Oblast     50°41′52″N   44°43′51″E
temp.,
°C
wind,
m/s
gust,
m/s
humid.,
%
clouds,
%
prec.,
mm/h
press.,
hPa
HPBL,
m
31 july, sat
sat3100:00+21wsw366945 0.1 1009116
03:00+20sw378293 0.1 1008143
06:00+22sw377590 0.1 1009238
09:00+27wsw4657100 0.1 1009651
12:00+31wsw573845 0.0 10092187
15:00+31w464097 0.0 10091597
18:00+22sse467554 2.1 1010113
21:00+23ne2367100 5.3 101141
1 august, sun
sun100:00+22nw116925 0.0 101211
03:00+20se117224 0.1 101311
06:00+22e00672 0.1 101328
09:00+29n11465 0.2 1013507
12:00+32wnw23358 0.0 10131773
15:00+33ene333236 0.0 10122296
18:00+29ene454351 0.1 1012188
21:00+26ene22420 0.1 101212
2 august, mon
mon200:00+24e22440 0.0 101311
03:00+22ene22470 0.0 101311
06:00+24ese25552 0.0 1013104
09:00+32se35322 0.0 1013595
12:00+36s34155 0.0 10114045
15:00+35sw762098 0.0 10102067
18:00+34s23262 0.0 101062
21:00+28w223210 0.0 101026
3 august, tue
tue300:00+25se22365 0.0 101014
03:00+24sse33344 0.0 101030
06:00+25s483518 0.0 1010146
09:00+32sw572399 0.0 1010511
12:00+36ssw582093 0.0 10091881
15:00+38ssw6811100 0.0 10074518
18:00+35sw5818100 0.0 1006251
21:00+21nw101574100 0.1 1012862
4 august, wed
wed400:00+20nne4988100 5.3 1010246
03:00+20se1286100 5.4 101187
06:00+20nw4887100 0.3 1012328
09:00+21nnw2376100 0.4 1013392
12:00+26nw344999 0.0 10131306
15:00+30nw553538 0.0 10122804
18:00+26n574753 0.0 1013697
21:00+21nne2258100 0.0 101423